Torna al catalogo

STARLINK-31371

AttivoComunicazioniVLEO
NORAD 58940·PAYLOAD·🇺🇸 United States

Lanciato Feb 10, 2024 da Vandenberg Space Force Base

Loading…

Prossimi Passaggi (prossime 24 ore)

TLE

AggiornatoSource: CelesTrak SupGP

Epoca: Sep 15, 2026, 02:20 UTC

1 58940C 24027K   26258.09770833  .00029925  00000+0  88412-3 0  2581
2 58940  53.1587 149.2308 0001326  79.5769  13.7440 15.34376371    19

Traccia STARLINK-31371 in tempo reale con AllMySat

Download on the App Store